| time (UTC) | temp C | wind direction | speed KPH | gust KPH | rain 1hr cm | rain 24hr cm | rain mn cm | humidity % | barometer mb |
| 20260505082525 | 16 | 173 | 11.3 | 27.4 | 0.10 | 0.10 | 0.10 | 80 | 1011.1 |
| 20260505082025 | 16 | 162 | 9.7 | 27.4 | 0.08 | 0.08 | 0.08 | 80 | 1011.0 |
| 20260505081546 | 16 | 198 | 11.3 | 25.7 | 0.08 | 0.08 | 0.08 | 79 | 1010.9 |
| 20260505081025 | 16 | 173 | 9.7 | 24.1 | 0.05 | 0.05 | 0.05 | 79 | 1010.7 |
| 20260505080525 | 16 | 171 | 8.0 | 22.5 | 0.05 | 0.05 | 0.05 | 79 | 1010.6 |
| 20260505080047 | 16 | 173 | 9.7 | 32.2 | 0.05 | 0.05 | 0.05 | 77 | 1010.7 |
| 20260505075525 | 16 | 157 | 14.5 | 32.2 | 0.05 | 0.05 | 0.05 | 75 | 1010.8 |
| 20260505075024 | 17 | 145 | 9.7 | 22.5 | 0.05 | 0.05 | 0.05 | 73 | 1010.7 |
| 20260505074535 | 17 | 165 | 11.3 | 24.1 | 0.05 | 0.05 | 0.05 | 71 | 1010.8 |
| 20260505074024 | 17 | 147 | 11.3 | 24.1 | 0.03 | 0.03 | 0.03 | 67 | 1010.7 |
| 20260505073524 | 18 | 169 | 9.7 | 19.3 | 0.00 | 0.00 | 0.00 | 63 | 1010.7 |
| 20260505073043 | 19 | 167 | 8.0 | 17.7 | 0.00 | 0.00 | 0.00 | 57 | 1010.8 |
| 20260505072525 | 20 | 194 | 6.4 | 19.3 | 0.00 | 0.00 | 0.00 | 55 | 1010.6 |
| 20260505072025 | 20 | 191 | 11.3 | 19.3 | 0.00 | 0.00 | 0.00 | 51 | 1010.6 |
| 20260505071550 | 20 | 205 | 9.7 | 19.3 | 0.00 | 0.00 | 0.00 | 50 | 1010.6 |
| 20260505071025 | 20 | 232 | 8.0 | 14.5 | 0.00 | 0.00 | 0.00 | 48 | 1010.4 |
| 20260505070526 | 20 | 216 | 6.4 | 12.9 | 0.00 | 0.00 | 0.00 | 47 | 1010.4 |
| 20260505070040 | 20 | 188 | 4.8 | 16.1 | 0.00 | 0.00 | 0.00 | 48 | 1010.5 |
| 20260505065525 | 20 | 229 | 8.0 | 16.1 | 0.00 | 0.00 | 0.00 | 48 | 1010.3 |
| 20260505065025 | 20 | 194 | 8.0 | 16.1 | 0.00 | 0.00 | 0.00 | 47 | 1010.3 |
| 20260505064538 | 20 | 216 | 6.4 | 19.3 | 0.00 | 0.00 | 0.00 | 47 | 1010.1 |
| 20260505064024 | 20 | 204 | 6.4 | 20.9 | 0.00 | 0.00 | 0.00 | 46 | 1009.9 |
| 20260505063524 | 20 | 203 | 11.3 | 20.9 | 0.00 | 0.00 | 0.00 | 46 | 1009.9 |
| 20260505063047 | 20 | 148 | 6.4 | 22.5 | 0.00 | 0.00 | 0.00 | 45 | 1009.8 |
| 20260505062524 | 20 | 171 | 8.0 | 25.7 | 0.00 | 0.00 | 0.00 | 45 | 1009.9 |
| 20260505062025 | 20 | 171 | 12.9 | 27.4 | 0.00 | 0.00 | 0.00 | 44 | 1009.8 |
| 20260505061545 | 21 | 144 | 9.7 | 27.4 | 0.00 | 0.00 | 0.00 | 42 | 1009.8 |
| 20260505061026 | 21 | 183 | 9.7 | 24.1 | 0.00 | 0.00 | 0.00 | 40 | 1009.9 |
| 20260505060525 | 21 | 152 | 9.7 | 24.1 | 0.00 | 0.00 | 0.00 | 38 | 1009.8 |
| 20260505060043 | 21 | 171 | 9.7 | 22.5 | 0.00 | 0.00 | 0.00 | 36 | 1009.8 |
| 20260505055525 | 21 | 201 | 4.8 | 20.9 | 0.00 | 0.00 | 0.00 | 34 | 1009.8 |
| 20260505055025 | 21 | 212 | 6.4 | 20.9 | 0.00 | 0.00 | 0.00 | 33 | 1009.9 |
| 20260505054546 | 21 | 186 | 11.3 | 20.9 | 0.00 | 0.00 | 0.00 | 33 | 1010.2 |
| 20260505054026 | 21 | 162 | 6.4 | 19.3 | 0.00 | 0.00 | 0.00 | 32 | 1010.4 |
| 20260505053524 | 21 | 209 | 6.4 | 19.3 | 0.00 | 0.00 | 0.00 | 32 | 1010.3 |
| 20260505053044 | 22 | 179 | 9.7 | 17.7 | 0.00 | 0.00 | 0.00 | 31 | 1010.5 |
| 20260505052528 | 22 | 184 | 6.4 | 17.7 | 0.00 | 0.00 | 0.00 | 31 | 1010.5 |
| 20260505052028 | 22 | 202 | 9.7 | 25.7 | 0.00 | 0.00 | 0.00 | 30 | 1010.6 |
| 20260505051542 | 22 | 188 | 8.0 | 25.7 | 0.00 | 0.00 | 0.00 | 29 | 1010.6 |
| 20260505051024 | 22 | 200 | 8.0 | 19.3 | 0.00 | 0.00 | 0.00 | 29 | 1010.6 |
| 20260505050524 | 22 | 237 | 9.7 | 24.1 | 0.00 | 0.00 | 0.00 | 29 | 1010.5 |
| 20260505041539 | 22 | 205 | 8.0 | 20.9 | 0.00 | 0.00 | 0.00 | 31 | 1010.5 |
| 20260505041025 | 22 | 155 | 8.0 | 20.9 | 0.00 | 0.00 | 0.00 | 32 | 1010.3 |
| 20260505040526 | 22 | 199 | 9.7 | 24.1 | 0.00 | 0.00 | 0.00 | 33 | 1010.4 |
| 20260505040040 | 22 | 254 | 11.3 | 24.1 | 0.00 | 0.00 | 0.00 | 38 | 1010.1 |
| 20260505035524 | 22 | 219 | 4.8 | 9.7 | 0.00 | 0.00 | 0.00 | 43 | 1009.9 |
| 20260505035024 | 22 | 203 | 3.2 | 12.9 | 0.00 | 0.00 | 0.00 | 43 | 1009.8 |
| 20260505034545 | 22 | 213 | 4.8 | 12.9 | 0.00 | 0.00 | 0.00 | 43 | 1009.7 |
| 20260505034026 | 23 | 223 | 6.4 | 14.5 | 0.00 | 0.00 | 0.00 | 43 | 1009.7 |
| 20260505033525 | 23 | 210 | 4.8 | 14.5 | 0.00 | 0.00 | 0.00 | 43 | 1009.7 |
| 20260505033040 | 23 | 213 | 6.4 | 16.1 | 0.00 | 0.00 | 0.00 | 43 | 1009.7 |
| 20260505032525 | 23 | 229 | 8.0 | 16.1 | 0.00 | 0.00 | 0.00 | 42 | 1009.4 |
| 20260505032024 | 23 | 209 | 6.4 | 16.1 | 0.00 | 0.00 | 0.00 | 42 | 1009.2 |
| 20260505031544 | 23 | 190 | 6.4 | 14.5 | 0.00 | 0.00 | 0.00 | 42 | 1009.2 |
| 20260505031027 | 23 | 219 | 6.4 | 14.5 | 0.00 | 0.00 | 0.00 | 42 | 1009.2 |
| 20260505030525 | 23 | 196 | 3.2 | 12.9 | 0.00 | 0.00 | 0.00 | 41 | 1009.3 |
| 20260505030041 | 23 | 214 | 6.4 | 12.9 | 0.00 | 0.00 | 0.00 | 41 | 1009.2 |
| 20260505025526 | 23 | 218 | 6.4 | 16.1 | 0.00 | 0.00 | 0.00 | 40 | 1009.3 |
| 20260505025025 | 23 | 216 | 9.7 | 16.1 | 0.00 | 0.00 | 0.00 | 39 | 1009.2 |
| 20260505024539 | 23 | 198 | 6.4 | 12.9 | 0.00 | 0.00 | 0.00 | 39 | 1009.2 |
| 20260505024026 | 23 | 198 | 4.8 | 12.9 | 0.00 | 0.00 | 0.00 | 38 | 1009.1 |
| 20260505023524 | 23 | 205 | 4.8 | 12.9 | 0.00 | 0.00 | 0.00 | 38 | 1009.1 |
| 20260505023050 | 23 | 230 | 4.8 | 16.1 | 0.00 | 0.00 | 0.00 | 38 | 1009.2 |
| 20260505022524 | 23 | 230 | 6.4 | 16.1 | 0.00 | 0.00 | 0.00 | 36 | 1009.3 |
| 20260505022025 | 23 | 178 | 8.0 | 16.1 | 0.00 | 0.00 | 0.00 | 36 | 1009.4 |
| 20260505021544 | 23 | 196 | 8.0 | 17.7 | 0.00 | 0.00 | 0.00 | 36 | 1009.2 |
| 20260505021025 | 23 | 250 | 6.4 | 17.7 | 0.00 | 0.00 | 0.00 | 37 | 1009.2 |
| 20260505020526 | 24 | 232 | 4.8 | 12.9 | 0.00 | 0.00 | 0.00 | 37 | 1009.1 |
| 20260505020040 | 24 | 209 | 6.4 | 12.9 | 0.00 | 0.00 | 0.00 | 36 | 1008.9 |
| 20260505015525 | 24 | 271 | 4.8 | 11.3 | 0.00 | 0.00 | 0.00 | 36 | 1009.0 |
| 20260505015025 | 24 | 243 | 3.2 | 11.3 | 0.00 | 0.00 | 0.00 | 36 | 1008.8 |
| 20260505014540 | 24 | 196 | 3.2 | 11.3 | 0.00 | 0.00 | 0.00 | 36 | 1008.7 |
| 20260505014024 | 24 | 246 | 4.8 | 11.3 | 0.00 | 0.00 | 0.00 | 36 | 1008.6 |
| 20260505013524 | 24 | 209 | 1.6 | 9.7 | 0.00 | 0.00 | 0.00 | 36 | 1008.6 |
| 20260505013039 | 24 | 298 | 3.2 | 11.3 | 0.00 | 0.00 | 0.00 | 36 | 1008.6 |
| 20260505012524 | 24 | 227 | 3.2 | 11.3 | 0.00 | 0.00 | 0.00 | 36 | 1008.8 |
| 20260505012024 | 25 | 215 | 3.2 | 9.7 | 0.00 | 0.00 | 0.00 | 36 | 1008.7 |
| 20260505011548 | 25 | 284 | 1.6 | 11.3 | 0.00 | 0.00 | 0.00 | 35 | 1008.7 |
| 20260505011027 | 25 | 279 | 3.2 | 11.3 | 0.00 | 0.00 | 0.00 | 35 | 1008.8 |
| 20260505010525 | 25 | 265 | 1.6 | 12.9 | 0.00 | 0.00 | 0.00 | 36 | 1008.8 |
| 20260505005525 | 25 | 274 | 4.8 | 12.9 | 0.00 | 0.00 | 0.00 | 36 | 1008.8 |
| 20260505005026 | 25 | 281 | 3.2 | 9.7 | 0.00 | 0.00 | 0.00 | 37 | 1008.7 |
| 20260505004540 | 25 | 270 | 3.2 | 9.7 | 0.00 | 0.00 | 0.00 | 36 | 1008.8 |
| 20260505004026 | 25 | 204 | 3.2 | 9.7 | 0.00 | 0.00 | 0.00 | 35 | 1008.7 |
| 20260505003524 | 25 | 232 | 3.2 | 9.7 | 0.00 | 0.00 | 0.00 | 35 | 1008.7 |
| 20260505003043 | 25 | 301 | 3.2 | 8.0 | 0.00 | 0.00 | 0.00 | 36 | 1008.7 |
| 20260505002524 | 25 | 322 | 3.2 | 12.9 | 0.00 | 0.00 | 0.00 | 36 | 1008.8 |
| 20260505002024 | 25 | 285 | 1.6 | 12.9 | 0.00 | 0.00 | 0.00 | 36 | 1008.7 |
| 20260505001539 | 25 | 268 | 6.4 | 12.9 | 0.00 | 0.00 | 0.00 | 36 | 1008.8 |
| 20260505001024 | 25 | 342 | 4.8 | 12.9 | 0.00 | 0.00 | 0.00 | 36 | 1008.8 |
| 20260505000525 | 25 | 292 | 3.2 | 16.1 | 0.00 | 0.00 | 0.00 | 36 | 1008.9 |
| 20260505000048 | 25 | 261 | 8.0 | 16.1 | 0.00 | 0.00 | 0.00 | 36 | 1009.1 |
| 20260504235526 | 25 | 315 | 6.4 | 14.5 | 0.00 | 0.00 | 0.00 | 36 | 1009.0 |
| 20260504235025 | 25 | 299 | 6.4 | 16.1 | 0.00 | 0.00 | 0.00 | 36 | 1009.0 |
| 20260504234543 | 25 | 269 | 6.4 | 16.1 | 0.00 | 0.00 | 0.00 | 36 | 1009.1 |
| 20260504234026 | 25 | 286 | 6.4 | 14.5 | 0.00 | 0.00 | 0.00 | 36 | 1009.2 |
| 20260504233525 | 25 | 301 | 6.4 | 14.5 | 0.00 | 0.00 | 0.00 | 36 | 1009.2 |
| 20260504233040 | 25 | 247 | 4.8 | 14.5 | 0.00 | 0.00 | 0.00 | 36 | 1009.1 |
| 20260504232550 | 25 | 300 | 6.4 | 12.9 | 0.00 | 0.00 | 0.00 | 37 | 1008.9 |
| 20260504232024 | 25 | 289 | 4.8 | 12.9 | 0.00 | 0.00 | 0.00 | 37 | 1008.8 |
| 20260504231544 | 25 | 289 | 1.6 | 9.7 | 0.00 | 0.00 | 0.00 | 36 | 1008.8 |
| 20260504231024 | 25 | 266 | 3.2 | 16.1 | 0.00 | 0.00 | 0.00 | 36 | 1008.9 |
| 20260504230524 | 25 | 269 | 6.4 | 16.1 | 0.00 | 0.00 | 0.00 | 36 | 1009.0 |
| 20260504230044 | 25 | 253 | 4.8 | 12.9 | 0.00 | 0.00 | 0.00 | 36 | 1009.0 |
| 20260504225525 | 25 | 288 | 4.8 | 17.7 | 0.00 | 0.00 | 0.00 | 37 | 1009.1 |
| 20260504225024 | 25 | 267 | 6.4 | 17.7 | 0.00 | 0.00 | 0.00 | 37 | 1009.2 |
| 20260504224538 | 25 | 285 | 8.0 | 17.7 | 0.00 | 0.00 | 0.00 | 37 | 1009.2 |
| 20260504224024 | 25 | 292 | 11.3 | 17.7 | 0.00 | 0.00 | 0.00 | 37 | 1009.4 |
| 20260504223525 | 25 | 302 | 6.4 | 14.5 | 0.00 | 0.00 | 0.00 | 37 | 1009.4 |
| 20260504223050 | 25 | 284 | 8.0 | 14.5 | 0.00 | 0.00 | 0.00 | 37 | 1009.3 |
| 20260504222523 | 25 | 294 | 4.8 | 19.3 | 0.00 | 0.00 | 0.00 | 37 | 1009.3 |
| 20260504222024 | 25 | 213 | 8.0 | 19.3 | 0.00 | 0.00 | 0.00 | 38 | 1009.1 |
| 20260504221554 | 25 | 234 | 4.8 | 20.9 | 0.00 | 0.00 | 0.00 | 39 | 1009.1 |
| 20260504221025 | 25 | 171 | 6.4 | 20.9 | 0.00 | 0.00 | 0.00 | 38 | 1009.1 |
| 20260504220528 | 25 | 214 | 9.7 | 20.9 | 0.00 | 0.00 | 0.00 | 38 | 1009.3 |
| 20260504220042 | 25 | 215 | 6.4 | 16.1 | 0.00 | 0.00 | 0.00 | 38 | 1009.6 |
| 20260504215525 | 25 | 219 | 6.4 | 16.1 | 0.00 | 0.00 | 0.00 | 38 | 1009.6 |
| 20260504215024 | 25 | 227 | 3.2 | 16.1 | 0.00 | 0.00 | 0.00 | 38 | 1009.8 |
| 20260504214539 | 25 | 236 | 6.4 | 16.1 | 0.00 | 0.00 | 0.00 | 37 | 1009.8 |
| 20260504214024 | 25 | 272 | 4.8 | 14.5 | 0.00 | 0.00 | 0.00 | 37 | 1010.0 |
| 20260504213524 | 25 | 229 | 4.8 | 16.1 | 0.00 | 0.00 | 0.00 | 38 | 1010.3 |
| 20260504213059 | 25 | 219 | 4.8 | 16.1 | 0.00 | 0.00 | 0.00 | 37 | 1010.5 |
| 20260504212524 | 25 | 241 | 9.7 | 16.1 | 0.00 | 0.00 | 0.00 | 37 | 1010.7 |
| 20260504212025 | 25 | 229 | 6.4 | 20.9 | 0.00 | 0.00 | 0.00 | 37 | 1010.6 |
| 20260504211547 | 25 | 235 | 4.8 | 20.9 | 0.00 | 0.00 | 0.00 | 37 | 1010.6 |
| 20260504211025 | 25 | 215 | 9.7 | 24.1 | 0.00 | 0.00 | 0.00 | 37 | 1010.4 |
| 20260504210525 | 25 | 232 | 6.4 | 24.1 | 0.00 | 0.00 | 0.00 | 37 | 1010.6 |
| 20260504210041 | 25 | 229 | 9.7 | 24.1 | 0.00 | 0.00 | 0.00 | 37 | 1010.5 |
| 20260504205525 | 25 | 208 | 6.4 | 22.5 | 0.00 | 0.00 | 0.00 | 37 | 1010.5 |
| 20260504205024 | 25 | 317 | 8.0 | 17.7 | 0.00 | 0.00 | 0.00 | 37 | 1010.6 |
| 20260504204538 | 25 | 205 | 8.0 | 17.7 | 0.00 | 0.00 | 0.00 | 37 | 1010.5 |
| 20260504204024 | 25 | 267 | 6.4 | 19.3 | 0.00 | 0.00 | 0.00 | 37 | 1010.4 |
| 20260504203526 | 25 | 276 | 8.0 | 19.3 | 0.00 | 0.00 | 0.00 | 36 | 1010.4 |
| 20260504203048 | 25 | 266 | 4.8 | 17.7 | 0.00 | 0.00 | 0.00 | 37 | 1010.4 |
| 20260504202525 | 25 | 223 | 6.4 | 17.7 | 0.00 | 0.00 | 0.00 | 36 | 1010.4 |
| 20260504202024 | 25 | 254 | 6.4 | 17.7 | 0.00 | 0.00 | 0.00 | 37 | 1010.3 |
| 20260504201538 | 25 | 299 | 8.0 | 16.1 | 0.00 | 0.00 | 0.00 | 36 | 1010.4 |
| 20260504201024 | 25 | 252 | 6.4 | 24.1 | 0.00 | 0.00 | 0.00 | 37 | 1010.6 |
| 20260504200525 | 25 | 271 | 8.0 | 24.1 | 0.00 | 0.00 | 0.00 | 37 | 1010.4 |
| 20260504200036 | 25 | 227 | 6.4 | 16.1 | 0.00 | 0.00 | 0.00 | 37 | 1010.4 |
| 20260504195525 | 25 | 264 | 6.4 | 24.1 | 0.00 | 0.00 | 0.00 | 36 | 1010.5 |
| 20260504195024 | 25 | 215 | 6.4 | 24.1 | 0.00 | 0.00 | 0.00 | 37 | 1010.6 |
| 20260504194544 | 25 | 215 | 8.0 | 20.9 | 0.00 | 0.00 | 0.00 | 36 | 1010.6 |
| 20260504194024 | 25 | 291 | 4.8 | 19.3 | 0.00 | 0.00 | 0.00 | 36 | 1010.6 |
| 20260504193527 | 25 | 229 | 8.0 | 20.9 | 0.00 | 0.00 | 0.00 | 36 | 1010.7 |
| 20260504193039 | 25 | 240 | 9.7 | 20.9 | 0.00 | 0.00 | 0.00 | 36 | 1010.7 |
| 20260504192523 | 25 | 228 | 8.0 | 20.9 | 0.00 | 0.00 | 0.00 | 36 | 1010.7 |
| 20260504192026 | 26 | 277 | 11.3 | 22.5 | 0.00 | 0.00 | 0.00 | 36 | 1010.7 |
| 20260504191541 | 26 | 274 | 3.2 | 22.5 | 0.00 | 0.00 | 0.00 | 36 | 1010.6 |
| 20260504191024 | 25 | 215 | 8.0 | 22.5 | 0.00 | 0.00 | 0.00 | 36 | 1010.3 |
| 20260504190523 | 26 | 277 | 8.0 | 17.7 | 0.00 | 0.00 | 0.00 | 35 | 1010.3 |
| 20260504190039 | 26 | 278 | 8.0 | 17.7 | 0.00 | 0.00 | 0.00 | 36 | 1010.2 |
| 20260504185524 | 26 | 293 | 8.0 | 16.1 | 0.00 | 0.00 | 0.00 | 36 | 1010.2 |
| 20260504185028 | 26 | 228 | 3.2 | 16.1 | 0.00 | 0.00 | 0.00 | 35 | 1010.2 |
| 20260504184543 | 26 | 252 | 6.4 | 20.9 | 0.00 | 0.00 | 0.00 | 36 | 1010.2 |
| 20260504184028 | 25 | 222 | 4.8 | 20.9 | 0.00 | 0.00 | 0.00 | 36 | 1010.3 |
| 20260504183524 | 25 | 333 | 9.7 | 20.9 | 0.00 | 0.00 | 0.00 | 36 | 1010.6 |
| 20260504183043 | 25 | 282 | 3.2 | 22.5 | 0.00 | 0.00 | 0.00 | 36 | 1010.7 |
| 20260504182523 | 25 | 220 | 11.3 | 22.5 | 0.00 | 0.00 | 0.00 | 38 | 1010.8 |
| 20260504182025 | 25 | 225 | 6.4 | 20.9 | 0.00 | 0.00 | 0.00 | 38 | 1010.7 |
| 20260504181539 | 25 | 199 | 8.0 | 24.1 | 0.00 | 0.00 | 0.00 | 38 | 1010.6 |
| 20260504181027 | 25 | 195 | 4.8 | 25.7 | 0.00 | 0.00 | 0.00 | 39 | 1010.3 |
| 20260504180525 | 25 | 215 | 11.3 | 25.7 | 0.00 | 0.00 | 0.00 | 38 | 1010.7 |
| 20260504180046 | 25 | 209 | 8.0 | 22.5 | 0.00 | 0.00 | 0.00 | 38 | 1010.5 |
| 20260504175526 | 25 | 203 | 8.0 | 19.3 | 0.00 | 0.00 | 0.00 | 36 | 1010.4 |
| 20260504175025 | 25 | 202 | 6.4 | 19.3 | 0.00 | 0.00 | 0.00 | 36 | 1010.4 |
| 20260504174543 | 25 | 239 | 8.0 | 19.3 | 0.00 | 0.00 | 0.00 | 36 | 1010.6 |
| 20260504174024 | 25 | 237 | 8.0 | 19.3 | 0.00 | 0.00 | 0.00 | 37 | 1010.4 |
| 20260504173524 | 25 | 165 | 8.0 | 16.1 | 0.00 | 0.00 | 0.00 | 37 | 1010.6 |
| 20260504173040 | 25 | 221 | 4.8 | 25.7 | 0.00 | 0.00 | 0.00 | 37 | 1010.6 |
| 20260504172524 | 25 | 169 | 11.3 | 25.7 | 0.00 | 0.00 | 0.00 | 37 | 1010.6 |
| 20260504172024 | 25 | 217 | 8.0 | 24.1 | 0.00 | 0.00 | 0.00 | 37 | 1010.8 |
| 20260504171539 | 25 | 251 | 11.3 | 24.1 | 0.00 | 0.00 | 0.00 | 37 | 1011.0 |
| 20260504171024 | 25 | 254 | 8.0 | 22.5 | 0.00 | 0.00 | 0.00 | 37 | 1010.9 |
| 20260504170524 | 25 | 240 | 9.7 | 20.9 | 0.00 | 0.00 | 0.00 | 37 | 1010.9 |
| 20260504151024 | 22 | 182 | 4.8 | 14.5 | 0.00 | 0.00 | 0.00 | 45 | 1010.3 |
| 20260504150524 | 22 | 173 | 3.2 | 14.5 | 0.00 | 0.00 | 0.00 | 45 | 1010.2 |
| 20260504141024 | 21 | 213 | 8.0 | 19.3 | 0.00 | 0.00 | 0.00 | 48 | 1009.9 |
| 20260504140524 | 21 | 194 | 8.0 | 20.9 | 0.00 | 0.00 | 0.00 | 48 | 1010.0 |
| 20260504130524 | 21 | 184 | 1.6 | 9.7 | 0.00 | 0.00 | 0.00 | 45 | 1009.5 |
| 20260504110524 | 22 | 181 | 3.2 | 9.7 | 0.00 | 0.00 | 0.00 | 42 | 1008.9 |
| 20260504100524 | 22 | 0 | 0.0 | 3.2 | 0.00 | 0.00 | 0.00 | 43 | 1009.0 |